TimeHST,TemperatureF,Dew PointF,Humidity,Sea Level PressureIn,VisibilityMPH,Wind Direction,Wind SpeedMPH,Gust SpeedMPH,PrecipitationIn,Events,Conditions,WindDirDegrees,DateUTC
12:52 AM,35.6,32.0,87,29.84,10.0,NNE,13.8,-,N/A,,Overcast,20,2012-11-10 10:52:00
12:56 AM,34.0,32.0,92,29.84,9.0,North,13.8,-,N/A,Snow,Light Snow,10,2012-11-10 10:56:00
1:04 AM,35.6,32.0,87,29.84,6.2,North,12.7,-,N/A,Snow,Light Snow,10,2012-11-10 11:04:00
1:19 AM,33.8,30.2,87,29.83,2.5,North,13.8,-,N/A,Snow,Light Snow,10,2012-11-10 11:19:00
1:30 AM,33.8,30.2,87,29.83,2.5,North,13.8,-,N/A,Snow,Light Snow,10,2012-11-10 11:30:00
1:33 AM,33.8,32.0,93,29.83,-9999.0,North,12.7,-,N/A,Snow,Light Snow,10,2012-11-10 11:33:00
1:56 AM,34.0,32.0,92,29.83,5.0,North,15.0,-,N/A,Snow,Light Snow,10,2012-11-10 11:56:00
2:07 AM,33.8,32.0,93,29.82,6.2,North,15.0,-,N/A,Snow,Light Snow,10,2012-11-10 12:07:00
2:20 AM,33.8,33.8,100,29.82,6.2,North,12.7,-,N/A,Snow,Light Snow,360,2012-11-10 12:20:00
2:56 AM,34.0,32.0,92,29.81,5.0,North,19.6,-,N/A,Snow,Light Snow,10,2012-11-10 12:56:00
3:34 AM,33.8,32.0,93,29.80,6.2,North,17.3,-,N/A,Snow,Light Snow,360,2012-11-10 13:34:00
3:56 AM,34.0,33.1,96,29.79,9.0,North,16.1,-,N/A,Snow,Light Snow,10,2012-11-10 13:56:00
4:56 AM,34.0,33.1,96,29.78,9.0,North,17.3,-,N/A,Snow,Light Snow,360,2012-11-10 14:56:00
5:56 AM,34.0,33.1,96,29.76,9.0,North,19.6,-,N/A,Snow,Light Snow,360,2012-11-10 15:56:00
6:08 AM,33.8,33.8,100,29.76,6.2,North,16.1,-,N/A,Snow,Light Snow,10,2012-11-10 16:08:00
6:44 AM,35.6,33.8,93,29.76,6.2,North,15.0,-,N/A,Rain,Light Rain,10,2012-11-10 16:44:00
6:56 AM,35.1,34.0,96,29.76,9.0,North,13.8,-,N/A,Snow,Light Snow,10,2012-11-10 16:56:00
7:35 AM,35.6,33.8,93,29.76,10.0,North,11.5,-,N/A,Rain,Light Rain,360,2012-11-10 17:35:00
7:44 AM,35.6,33.8,93,29.76,10.0,North,12.7,-,N/A,Rain,Light Rain,360,2012-11-10 17:44:00
7:56 AM,35.1,34.0,96,29.76,10.0,North,13.8,-,N/A,Rain,Light Rain,350,2012-11-10 17:56:00
8:56 AM,35.1,34.0,96,29.76,10.0,NNW,13.8,-,N/A,Rain,Light Rain,330,2012-11-10 18:56:00
9:56 AM,35.1,33.1,92,29.78,8.0,NNW,20.7,-,N/A,Snow,Light Snow,330,2012-11-10 19:56:00
10:03 AM,35.6,33.8,93,29.77,6.2,NW,20.7,-,N/A,Snow,Light Snow,310,2012-11-10 20:03:00
10:12 AM,35.6,33.8,93,29.77,6.2,NW,18.4,-,N/A,Snow,Light Snow,320,2012-11-10 20:12:00
10:27 AM,33.8,33.8,100,29.78,6.2,NW,17.3,-,N/A,Snow,Light Snow,320,2012-11-10 20:27:00
10:56 AM,35.1,32.0,89,29.78,10.0,NW,17.3,-,N/A,,Overcast,320,2012-11-10 20:56:00
10:59 AM,35.6,32.0,87,29.78,10.0,NW,16.1,-,N/A,,Overcast,320,2012-11-10 20:59:00
11:39 AM,35.6,33.8,93,29.79,10.0,NW,16.1,-,N/A,,Overcast,320,2012-11-10 21:39:00
11:56 AM,36.0,34.0,93,29.79,10.0,NW,12.7,-,N/A,Rain,Light Rain,310,2012-11-10 21:56:00
12:19 PM,37.4,33.8,87,29.79,10.0,NW,15.0,-,N/A,,Overcast,310,2012-11-10 22:19:00
12:39 PM,37.4,33.8,87,29.79,10.0,NW,15.0,-,N/A,,Mostly Cloudy,310,2012-11-10 22:39:00
12:56 PM,37.0,34.0,89,29.80,10.0,WNW,13.8,-,N/A,,Overcast,300,2012-11-10 22:56:00
1:20 PM,35.6,33.8,93,29.80,6.2,WNW,20.7,-,N/A,Snow,Light Snow,290,2012-11-10 23:20:00
1:29 PM,33.8,33.8,100,29.80,4.0,WNW,19.6,-,N/A,Snow,Light Snow,290,2012-11-10 23:29:00
1:42 PM,35.6,33.8,93,29.79,6.2,WNW,19.6,-,N/A,,Overcast,300,2012-11-10 23:42:00
1:49 PM,35.6,33.8,93,29.79,10.0,WNW,19.6,-,N/A,,Overcast,300,2012-11-10 23:49:00
1:53 PM,35.6,33.8,93,29.79,10.0,WNW,20.7,-,N/A,,Overcast,300,2012-11-10 23:53:00
1:56 PM,36.0,33.1,89,29.80,10.0,WNW,20.7,-,N/A,,Overcast,300,2012-11-10 23:56:00
2:16 PM,35.6,33.8,93,29.79,6.2,WNW,21.9,-,N/A,,Overcast,300,2012-11-11 00:16:00
2:23 PM,35.6,33.8,93,29.79,10.0,WNW,23.0,-,N/A,,Overcast,300,2012-11-11 00:23:00
2:56 PM,36.0,33.1,89,29.81,9.0,WNW,20.7,-,N/A,,Overcast,300,2012-11-11 00:56:00
3:23 PM,35.6,33.8,93,29.80,10.0,NW,19.6,-,N/A,,Overcast,310,2012-11-11 01:23:00
3:56 PM,37.0,30.9,79,29.81,10.0,WNW,16.1,-,N/A,,Overcast,300,2012-11-11 01:56:00
4:09 PM,37.4,32.0,81,29.81,10.0,WNW,19.6,-,N/A,,Mostly Cloudy,290,2012-11-11 02:09:00
4:16 PM,37.4,32.0,81,29.81,10.0,West,17.3,-,N/A,,Mostly Cloudy,280,2012-11-11 02:16:00
4:56 PM,37.0,30.9,79,29.82,10.0,WNW,15.0,-,N/A,,Scattered Clouds,300,2012-11-11 02:56:00
5:05 PM,35.6,28.4,75,29.82,10.0,WNW,13.8,-,N/A,,Mostly Cloudy,300,2012-11-11 03:05:00
5:17 PM,37.4,28.4,70,29.82,10.0,WNW,13.8,-,N/A,,Scattered Clouds,290,2012-11-11 03:17:00
5:56 PM,35.1,28.0,76,29.84,10.0,WNW,13.8,-,N/A,,Partly Cloudy,290,2012-11-11 03:56:00
6:56 PM,34.0,26.1,73,29.85,10.0,West,8.1,-,N/A,,Partly Cloudy,280,2012-11-11 04:56:00
7:56 PM,33.1,25.0,72,29.86,10.0,West,10.4,-,N/A,,Partly Cloudy,270,2012-11-11 05:56:00
8:56 PM,30.9,23.0,72,29.87,10.0,NW,3.5,-,N/A,,Clear,320,2012-11-11 06:56:00
9:56 PM,36.0,28.0,73,29.87,10.0,SW,17.3,-,N/A,,Scattered Clouds,230,2012-11-11 07:56:00
10:56 PM,34.0,28.0,79,29.89,7.0,West,16.1,-,N/A,Snow,Light Snow,260,2012-11-11 08:56:00
11:05 PM,33.8,30.2,87,29.89,-9999.0,WSW,12.7,-,N/A,Snow,Light Snow,250,2012-11-11 09:05:00
11:08 PM,33.8,30.2,87,29.89,-9999.0,WSW,9.2,-,N/A,Snow,Light Snow,240,2012-11-11 09:08:00
11:11 PM,33.8,30.2,87,29.89,1.5,SSW,15.0,-,N/A,Snow,Light Snow,200,2012-11-11 09:11:00
11:20 PM,33.8,33.8,100,29.88,1.8,South,6.9,-,N/A,Snow,Light Snow,180,2012-11-11 09:20:00
11:23 PM,33.8,33.8,100,29.88,-9999.0,South,5.8,-,N/A,Snow,Light Snow,190,2012-11-11 09:23:00
11:44 PM,33.8,32.0,93,29.88,10.0,South,8.1,-,N/A,,Scattered Clouds,190,2012-11-11 09:44:00
11:56 PM,35.1,30.9,85,29.88,10.0,SW,16.1,20.7,N/A,,Partly Cloudy,220,2012-11-11 09:56:00